Showing default

QIANFAN-53, 62254

Orbit data source: Space-Track

QIANFAN-53, 62254 is a Chinese payload satellite in LEO that was launched on Thu, 05 Dec 2024 UTC via a CHANG ZHENG 6A launch vehicle from the Taiyaun Space Center, China (TSC). Payload-class satellites include a variety of spacecraft equipped with specific instruments for various scientific and technological missions. These include communications satellites like Starlink; space stations such as the ISS; scientific satellites like the Hubble; Earth observation satellites from companies like Planet Labs, Umbra, and HawkEye 360; GPS; miniature CubeSats for education and research; and military/defense satellites.

Loading next visibility...
Identifier
62254, 2024-232T
Orbit
LEO
Country
Flag of CNCN / PRC
Related business
Manufacturer
SECM
Mission
Operational Commercial Communications
Bus & Motor
QIANFAN, Unknown motor
Mass
267 kg wet, ~267 kg dry
Launch date (UTC)
2024-12-05 (1 year ago)
Launch vehicle
CHANG ZHENG 6A
Launch site
Taiyaun Space Center, China (TSC)
Object type
Payload
Rocket body
Debris
Shape & HBR
Box + 1 Pan, 5.0 m
Radar Cross Section
13.200 m², Large (>1 m²)

Expand to show TLE details & history
Last TLE update: 8 hours ago

TLE from 8 hours ago
0 QIANFAN-53
1 62254U 24232T   26035.10890921  .00000031  00000-0  28708-4 0  9991
2 62254  89.0012  35.8253 0015597  44.9547 315.2864 13.50985021 75114
Epoch: 2026-02-04T02:36Z
TLE epoch observation values (Epoch: 2026-02-04T02:36:49.755Z)
Latitude
-0.00004°
Longitude
-137.66223°
Altitude
1,063.343 km
Speed
7.324 km/s
True Right ascension
02h 23m 18s
True Declination
0° 00' 00"
Sunlit
Object was in daylight at epoch
Visualization orbit readout
Latitude
Unknown
Longitude
Unknown
Altitude
Unknown
Speed
Unknown
Apparent Right ascension
Unknown
Apparent Declination
Unknown
Sunlit
N/A
Visualization observer readout
Local Sidereal Time
12:24:04
Azimuth
Unknown
Elevation
Unknown
Doppler factor
Unknown
Orbital elements
Apogee altitude
1,077.298 km
Perigee altitude
1,054.078 km
Semi-major axis
7,443.825 km
Eccentricity
0.00156
Inclination
89.0012°
RAAN
35.8253°
Arg. of periapsis
44.9547°
True anomaly
315.16048°
Mean anomaly
315.2864°
Eccentric anomaly
315.22346°
Mean motion
3.37947 °/min
Orbital period
106.53 mins
BSTAR
0.000028708
Loading maneuver chart data...
Computing Atmospheric mass density...
Loading historical data...
Loading historical data...
Loading historical data...
Loading historical data...
Loading historical data...
Loading historical data...
Loading historical data...

Documentation

Showing up to 5 results
|